• In Uzbekistan
  • List of Countries
  • For 7 days
  • Water Temperature
  • Satellite Maps
  • Weather Map
  • Weather Widgets
  • user-avatar
    Login

    Hourly Weather Andzhan

    Today, 18 February, Monday

    Time Temperature Precipitation Wind Pressure Humidity
    00:00 +7°C° 0.7 mm 2 mps 715 mmHg 71%
    01:00 +6°C° 0.7 mm 2 mps 715 mmHg 75%
    02:00 +6°C° 0.7 mm 2 mps 715 mmHg 79%
    03:00 +6°C° 0.8 mm 2 mps 716 mmHg 79%
    04:00 +5°C° 0.8 mm 2 mps 716 mmHg 79%
    05:00 +5°C° 0.8 mm 2 mps 716 mmHg 79%
    06:00 +5°C° 0.5 mm 2 mps 716 mmHg 79%
    07:00 +6°C° 0.5 mm 1 mps 716 mmHg 80%
    08:00 +6°C° 0.5 mm 1 mps 716 mmHg 81%
    09:00 +6°C° 0.1 mm 1 mps 715 mmHg 78%
    10:00 +7°C° 0.1 mm 1 mps 715 mmHg 75%
    11:00 +7°C° 0.1 mm 1 mps 714 mmHg 72%
    12:00 +8°C° 0 mm 1 mps 714 mmHg 68%
    13:00 +8°C° 0 mm 1 mps 713 mmHg 64%
    14:00 +9°C° 0 mm 1 mps 713 mmHg 61%
    15:00 +8°C° 0 mm 2 mps 713 mmHg 62%
    16:00 +8°C° 0 mm 2 mps 713 mmHg 63%
    17:00 +8°C° 0 mm 3 mps 714 mmHg 64%
    18:00 +6°C° 0.1 mm 4 mps 715 mmHg 67%
    19:00 +6°C° 0.1 mm 4 mps 715 mmHg 69%
    20:00 +5°C° 0.1 mm 4 mps 716 mmHg 72%
    21:00 +5°C° 0.1 mm 3 mps 717 mmHg 73%
    22:00 +4°C° 0.1 mm 3 mps 717 mmHg 75%
    23:00 +5°C° 0.1 mm 2 mps 718 mmHg 76%

    Tomorrow, 19 February, Tuesday

    Time Temperature Precipitation Wind Pressure Humidity
    00:00 +5°C° 0 mm 1 mps 718 mmHg 79%
    01:00 +5°C° 0 mm 1 mps 718 mmHg 81%
    02:00 +4°C° 0 mm 0 mps 719 mmHg 84%
    03:00 +4°C° 0 mm 0 mps 719 mmHg 86%
    04:00 +3°C° 0 mm 0 mps 719 mmHg 87%
    05:00 +3°C° 0 mm 0 mps 720 mmHg 89%
    06:00 +4°C° 0 mm 1 mps 720 mmHg 86%
    07:00 +4°C° 0 mm 1 mps 720 mmHg 83%
    08:00 +4°C° 0 mm 1 mps 720 mmHg 79%
    09:00 +6°C° 0 mm 1 mps 719 mmHg 69%
    10:00 +7°C° 0 mm 1 mps 718 mmHg 59%
    11:00 +9°C° 0 mm 1 mps 717 mmHg 49%
    12:00 +10°C° 0 mm 1 mps 716 mmHg 44%
    13:00 +11°C° 0 mm 1 mps 716 mmHg 39%
    14:00 +12°C° 0 mm 1 mps 715 mmHg 33%
    15:00 +12°C° 0 mm 1 mps 716 mmHg 34%
    16:00 +12°C° 0 mm 1 mps 716 mmHg 34%
    17:00 +12°C° 0 mm 1 mps 717 mmHg 35%
    18:00 +11°C° 0 mm 1 mps 718 mmHg 39%
    19:00 +10°C° 0 mm 1 mps 719 mmHg 44%
    20:00 +9°C° 0 mm 1 mps 720 mmHg 49%
    21:00 +9°C° 0 mm 1 mps 720 mmHg 50%
    22:00 +8°C° 0 mm 1 mps 720 mmHg 52%
    23:00 +8°C° 0 mm 1 mps 720 mmHg 53%

    Day after tomorrow, 20 February, Wednesday

    Time Temperature Precipitation Wind Pressure Humidity
    00:00 +7°C° 0 mm 1 mps 721 mmHg 53%
    01:00 +7°C° 0 mm 1 mps 721 mmHg 53%
    02:00 +5°C° 0 mm 0 mps 721 mmHg 54%
    03:00 +6°C° 0 mm 1 mps 721 mmHg 53%
    04:00 +6°C° 0 mm 1 mps 721 mmHg 52%
    05:00 +5°C° 0 mm 1 mps 721 mmHg 52%
    06:00 +5°C° 0 mm 1 mps 721 mmHg 52%
    07:00 +6°C° 0 mm 1 mps 721 mmHg 52%
    08:00 +6°C° 0 mm 1 mps 721 mmHg 52%
    09:00 +7°C° 0 mm 1 mps 721 mmHg 49%
    10:00 +7°C° 0 mm 2 mps 720 mmHg 45%
    11:00 +8°C° 0 mm 2 mps 719 mmHg 42%
    12:00 +9°C° 0 mm 3 mps 719 mmHg 39%
    13:00 +10°C° 0 mm 3 mps 719 mmHg 36%
    14:00 +10°C° 0 mm 3 mps 719 mmHg 33%
    15:00 +10°C° 0 mm 4 mps 720 mmHg 35%
    16:00 +10°C° 0 mm 4 mps 720 mmHg 38%
    17:00 +8°C° 0 mm 5 mps 721 mmHg 40%
    18:00 +7°C° 0 mm 5 mps 722 mmHg 48%
    19:00 +5°C° 0 mm 5 mps 722 mmHg 57%
    20:00 +3°C° 0 mm 5 mps 723 mmHg 65%
    21:00 +3°C° 0.1 mm 4 mps 723 mmHg 66%
    22:00 +3°C° 0.1 mm 4 mps 723 mmHg 66%
    23:00 +3°C° 0.1 mm 3 mps 724 mmHg 66%

    21 February, Thursday

    Time Temperature Precipitation Wind Pressure Humidity
    00:00 +2°C° 0.2 mm 3 mps 723 mmHg 69%
    01:00 +3°C° 0.2 mm 2 mps 723 mmHg 71%
    02:00 +3°C° 0.2 mm 2 mps 723 mmHg 73%
    03:00 +2°C° 0.4 mm 2 mps 723 mmHg 76%
    04:00 +2°C° 0.4 mm 2 mps 723 mmHg 80%
    05:00 +2°C° 0.4 mm 2 mps 723 mmHg 83%
    06:00 +2°C° 0.4 mm 2 mps 724 mmHg 85%
    07:00 +2°C° 0.4 mm 1 mps 724 mmHg 86%
    08:00 +2°C° 0.4 mm 1 mps 724 mmHg 87%
    09:00 +3°C° 0.2 mm 1 mps 724 mmHg 85%
    10:00 +2°C° 0.2 mm 2 mps 724 mmHg 83%
    11:00 +2°C° 0.2 mm 2 mps 724 mmHg 80%
    12:00 +4°C° 0.1 mm 1 mps 724 mmHg 76%
    13:00 +5°C° 0.1 mm 1 mps 724 mmHg 72%
    14:00 +5°C° 0.1 mm 1 mps 723 mmHg 68%
    15:00 +5°C° 0 mm 1 mps 724 mmHg 67%
    16:00 +6°C° 0 mm 1 mps 724 mmHg 66%
    17:00 +5°C° 0 mm 0 mps 725 mmHg 65%
    18:00 +5°C° 0 mm 1 mps 726 mmHg 68%
    19:00 +5°C° 0 mm 1 mps 726 mmHg 71%
    20:00 +4°C° 0 mm 1 mps 727 mmHg 75%
    21:00 +4°C° 0 mm 1 mps 728 mmHg 76%
    22:00 +4°C° 0 mm 1 mps 728 mmHg 77%
    23:00 +3°C° 0 mm 1 mps 728 mmHg 78%

    22 February, Friday

    Time Temperature Precipitation Wind Pressure Humidity
    00:00 +3°C° 0 mm 1 mps 728 mmHg 78%
    01:00 +3°C° 0 mm 1 mps 728 mmHg 77%
    02:00 +3°C° 0 mm 1 mps 728 mmHg 77%
    03:00 +2°C° 0 mm 1 mps 728 mmHg 76%
    04:00 +2°C° 0 mm 1 mps 728 mmHg 75%
    05:00 +2°C° 0 mm 1 mps 728 mmHg 73%
    06:00 +2°C° 0 mm 1 mps 728 mmHg 71%
    07:00 +2°C° 0 mm 1 mps 728 mmHg 68%
    08:00 +2°C° 0 mm 0 mps 727 mmHg 66%
    09:00 +3°C° 0 mm 0 mps 726 mmHg 58%
    10:00 +4°C° 0 mm 0 mps 725 mmHg 50%
    11:00 +6°C° 0 mm 0 mps 724 mmHg 42%
    12:00 +7°C° 0 mm 1 mps 723 mmHg 39%
    13:00 +8°C° 0 mm 1 mps 723 mmHg 36%
    14:00 +9°C° 0 mm 1 mps 722 mmHg 32%
    15:00 +9°C° 0 mm 1 mps 722 mmHg 33%
    16:00 +9°C° 0 mm 1 mps 722 mmHg 34%
    17:00 +9°C° 0 mm 1 mps 723 mmHg 34%
    18:00 +8°C° 0 mm 0 mps 724 mmHg 38%
    19:00 +7°C° 0 mm 0 mps 724 mmHg 41%
    20:00 +6°C° 0 mm 0 mps 725 mmHg 44%
    21:00 +6°C° 0 mm 1 mps 725 mmHg 46%
    22:00 +6°C° 0 mm 1 mps 725 mmHg 48%
    23:00 +5°C° 0 mm 1 mps 725 mmHg 50%

    23 February, Saturday

    Time Temperature Precipitation Wind Pressure Humidity
    00:00 +5°C° 0 mm 1 mps 725 mmHg 50%
    01:00 +4°C° 0 mm 1 mps 725 mmHg 50%
    02:00 +4°C° 0 mm 1 mps 725 mmHg 50%
    03:00 +4°C° 0 mm 1 mps 725 mmHg 49%
    04:00 +3°C° 0 mm 1 mps 725 mmHg 48%
    05:00 +3°C° 0 mm 1 mps 725 mmHg 47%
    06:00 +3°C° 0 mm 1 mps 725 mmHg 46%
    07:00 +4°C° 0 mm 1 mps 725 mmHg 44%
    08:00 +4°C° 0 mm 1 mps 725 mmHg 42%
    09:00 +6°C° 0 mm 1 mps 724 mmHg 36%
    10:00 +7°C° 0 mm 1 mps 723 mmHg 31%
    11:00 +8°C° 0 mm 0 mps 723 mmHg 25%
    12:00 +10°C° 0 mm 1 mps 722 mmHg 22%
    13:00 +11°C° 0 mm 1 mps 722 mmHg 20%
    14:00 +12°C° 0 mm 1 mps 721 mmHg 17%
    15:00 +12°C° 0 mm 1 mps 722 mmHg 18%
    16:00 +12°C° 0 mm 1 mps 722 mmHg 19%
    17:00 +12°C° 0 mm 1 mps 722 mmHg 21%
    18:00 +11°C° 0 mm 1 mps 723 mmHg 23%
    19:00 +10°C° 0 mm 1 mps 724 mmHg 26%
    20:00 +9°C° 0 mm 1 mps 725 mmHg 28%
    21:00 +8°C° 0 mm 1 mps 725 mmHg 31%
    22:00 +7°C° 0 mm 1 mps 725 mmHg 34%
    23:00 +7°C° 0 mm 1 mps 725 mmHg 36%
    Show more